THURAYA 3

导读

THURAYA 3是阿联酋(AE) Thuraya系列移动通信卫星,于2008年1月15日发射升空,基于波音BSS-702平台建造,运行于地球同步轨道。卫星配备12.25米口径天线,可生成超过200个可重构点波束,能同时支持超1.3万路语音通话,提供兼容GSM的移动卫星语音、数据服务,覆盖大区域范围,地面测控网络设于阿联酋,可实时适配业务需求变化,为全球偏远地区、海事场景提供卫星通信支撑。

基本信息
目录编号:
32404
目录名称:
THURAYA 3
国际标识:
2008-001A
轨道中心:
EARTH
卫星名称:
THURAYA 3
卫星全名:
--
卫星状态:
在轨 (已飞行6728 天)
发射日期:
2008-01-15 UTC
国别 :
(AE)
星等 :
--
轨道信息
数据来源 国际轨道数据 AOE轨道数据
星历时间 2026-06-17T00:48:01+0800
20小时前
查看轨道信息
2026-06-17T03:00:00+0800
18小时前
查看轨道信息
半长轴 42239.041km 42239.097km
偏心率 0.0001587 0.0001569
轨道倾角 5.989° 5.989°
近地点辐角 158.895° 161.787°
升交点赤经 35.802° 35.807°
平近点角 38.745° 68.846°
近地点 35854.2km 35854.332km
远地点 35867.608km 35867.588km
周期 1439.895分钟 1439.898分钟
每日圈数 1.000073 1.000071
详细信息
使用方式:
暂无
2D轨道图
3D轨道图
轨道高度分析图
轨道倾角分析图
轨道综合分析图
查看轨道综合分析图